Погода в Бомнаке

Поиск расширенной информации на нашем сайте:

Полезная информация:

Новости сайта



02.01.2020
Опубликован Долгосрочный прогноз погоды по городам России и ближнего зарубежья на январь 2020 года.
Карты: Прогноз на январь и февраль 2020 года, Сравнение прогнозируемой аномалии приземной температуры воздуха на январь 2020 года по разным моделям.




Погода в Бомнаке - сегодня

Время (UTC), дата Ветер
(°,м/с) 
Видим.   Явления Облачность Т
(°С)
Тd
(°С)
f(%) Тe
(°С)
Pmin
(гПа)
dP
(гПа)
Po
(мм)
O2
(г/м3)
Тmin Tmax R s Состояние
почвы
00 30.11.20 тихо ()   20000 м    8/0 средняя, верхняя 
[Ac trans|Cs]
-22.6 -23.8 90 -23  1025.8  0.5  732  323  -22.8      13  равномерный
сухой снег
100% 
03 30.11.20 020 (С) 20000 м    4/0 средняя, верхняя 
[Ac trans|Ci fib]
-20.5 -23.1 80 -21  1025.8  0.5  733  321           
06 30.11.20 тихо ()   20000 м    4/0 средняя, верхняя 
[Ac trans|Ci fib]
-15.9 -20.1 70 -16  1025  733  315           
09 30.11.20 тихо ()   20000 м    3/0 средняя 
[Ac trans]
-18 -21.4 75 -18  1025.9  0.4  733  318           
12 30.11.20 тихо ()   20000 м    ясно 
-20.7 -24.7 70 -21  1026.7  0.3  733  321    -14.7       
15 30.11.20 тихо ()   20000 м    ясно 
-21.2 -24.5 75 -21  1026.8  0.1  733  322           
18 30.11.20 тихо ()   20000 м    ясно 
-23.2 -25.8 79 -23  1027.9  0.7  734  325           
21 30.11.20 тихо ()   20000 м    ясно 
-25.9 -28.4 79 -26  1028.9  0.3  734  329           
00 01.12.20 тихо ()   20000 м    ясно 
-27.9 -29.1 89 -28  1029  0.4  734  331  -27.9      13  равномерный
сухой снег
100% 
03 01.12.20 020 (С) 20000 м    ясно 
-22.2 -24.8 79 -23  1028.5  734  324           
06 01.12.20 090 (В) 20000 м    3/0 средняя 
[Ac trans]
-20.8 -23.3 80 -21  1027.7  -0.5  734  322           
09 01.12.20 090 (В) 20000 м    3/0 средняя 
[Ac trans]
-21.8 -23.6 85 -22  1027.8  -0.1  734  323           
12 01.12.20 тихо ()   20000 м    ясно 
-24 -25.9 84 -24  1028.1  -0.2  734  326    -20.4       
15 01.12.20 тихо ()   20000 м    ясно 
-25.3 -27.2 84 -25  1027.5  -0.8  733  327           
18 01.12.20 тихо ()   20000 м    ясно 
-27.5 -28.7 90 -28  1026.8  -1  732  330           
21 01.12.20 тихо ()   20000 м    ясно 
-29.3 -31.8 79 -29  1026.7  -0.5  732  332           
00 02.12.20 тихо ()   20000 м    ясно 
-30.5 -32.4 84 -31  1026.7  -0.4  732  334  -30.6      13  равномерный
сухой снег
100% 
03 02.12.20 тихо ()   20000 м    6/0 средняя, верхняя 
[Ac trans|Ci fib]
-25.3 -27.2 84 -25  1024.3  -1.1  731  326           
06 02.12.20 тихо ()   20000 м    9/0 средняя, верхняя 
[Ac trans|Ci fib]
-23 -24.9 84 -23  1022.4  -1.4  730  323           
09 02.12.20 090 (В) 20000 м    8/0 средняя, верхняя 
[Ac trans|Ci fib]
-24.6 -25.9 89 -25  1022.5  -0.3  730  325           
12 02.12.20 тихо ()   20000 м    10/0 средняя, верхняя 
[Ac trans|Cs]
-25.3 -26.6 89 -25  1022.3  -0.2  729  326    -22.5       
15 02.12.20 тихо ()   20000 м    8/0 средняя, верхняя 
[Ac trans|Ci fib]
-27.2 -28.4 90 -27  1022.2  -0.5  729  328           
18 02.12.20 тихо ()   20000 м    6/0 средняя, верхняя 
[Ac trans|Ci fib]
-27.8 -32.7 63 -28  1021.7  -0.7  729  329           
21 02.12.20 тихо ()   20000 м    9/0 средняя, верхняя 
[Ac trans|Ci fib]
-30.4 -31.5 90 -30  1021.1  -0.9  728  332           
00 03.12.20 тихо ()   20000 м    10/0 средняя, верхняя 
[Ac trans|Cs]
-30 -32.4 80 -30  1021.2  0.1  728  331  -30.5      13  равномерный
сухой снег
100% 
Время (UTC), дата Ветер
(°,м/с) 
Видим.   Явления Облачность Т
(°С)
Тd
(°С)
f(%) Тe
(°С)
Pmin
(гПа)
dP
(гПа)
Po
(мм)
O2
(г/м3)
Тmin Tmax R s Состояние
почвы

Для получения пояснительной информации подведите курсор к названию столбца.

ПОГОДА в Бомнаке - архив

Всё, что Вы хотите узнать о погоде в Бомнаке - удобно и подробно!

Выберите нужную дату (начиная с 1 января 2019* года) и нажмите кнопку "Найти".
Будут отображены архивные сводки погоды по пункту Бомнак, начиная с указанной даты.


Отображать данные в формате CSV (для использования в таблицах Excel)


Внимание! Наш архив погоды предназначен исключительно для личного некоммерческого использования в познавательных целях. Если Вам необходимы официальные справки о состоянии погоды (для производственных, юридических, коммерческих и т.п. целей), обращайтесь в органы Росгидромета.

*Примечание: данная дата относится к архиву по метеостанциям СССР (Россия, СНГ, Балтия).
Архив по метеостанциям Зарубежной Европы и Азии (кроме Китая) хранится 10 дней, по другим регионам земного шара (Китай, Африка, Америка, Австралия, Океания) - 1 день.

Бомнак - район местоположения метеостанции


Название, широта, долгота, высота метеостанции:
Бомнак 54.7°ш. 128.9°д. 357 м над ур. моря [Российская Федерация]

Дополнительная информация

В oтличие oт бoльшинства пoгoдных сайтoв мы публикуем пoдрoбную метеoинфoрмацию в детальнoм прoфессиoнальнoм фoрмате.

Характеристики температуры и влажнoсти вoздуха измеряются на высoте 2 м в тени вдали oт зданий и деревьев.
Скoрoсть ветра измеряется на высoте 10 м (на урoвне рoста челoвека скoрoсть ветра ниже в 1.5-2 раза). Если метеoстанция нахoдится в гoрoде или в лесу, тo скoрoсть ветра занижена на 2-4 м/с пo сравнению с oткрытым местoм. Скoрoсть ветра над акватoриями крупных рек и oзёр, а также на вершинах хoлмoв на 2-5 м/с выше, чем в oбычных услoвиях.
Атмoсфернoе давление в разных тoчках местнoсти мoжет значительнo oтличаться oт давления на метеoстанции, в зависимoсти oт услoвий рельефа (при пoдъёме на 10 м давление пoнижается примернo на 1 мм рт.ст.).